Regional Weather Roundup
Issued by NWS Upton, NY

Current Version | Previous Version | Graphics & Text | Print | Product List | Glossary Off
Versions: 1 2 3 4 5 6 7 8 9 10 11 12 13 14 15 16 17 18 19 20 21 22 23 24 25 26 27 28 29 30 31 32 33 34 35 36 37 38 39 40 41 42 43 44 45 46 47 48 49 50

000
ASUS41 KOKX 240405
RWROKX

REGIONAL WEATHER ROUNDUP
NATIONAL WEATHER SERVICE NEW YORK NY
1200 AM EDT WED SEP 24 2014

NOTE: "FAIR" INDICATES FEW OR NO CLOUDS BELOW 12,000 FEET WITH NO
SIGNIFICANT WEATHER AND/OR OBSTRUCTIONS TO VISIBILITY.

NYZ071-072-176-178-NJZ106-104-240500-
NEW YORK CITY METRO AREA


CITY           SKY/WX    TMP DP  RH WIND       PRES   REMARKS
CENTRAL PARK   CLEAR     62  51  67 CALM      30.44R
LAGUARDIA APRT CLEAR     63  51  65 CALM      30.41R
KENNEDY INTL   PTCLDY    62  52  69 CALM      30.42R
NEWARK/LIBERTY PTCLDY    61  52  72 CALM      30.41R
BRNX BOT. GARD   N/A     57  52  82 NE2       30.44R
TETERBORO      CLEAR     61  51  70 SW5       30.41R
$$

NYZ177-179-078>081-240500-
LONG ISLAND NEW YORK

CITY           SKY/WX    TMP DP  RH WIND       PRES   REMARKS
FARMINGDALE    CLEAR     57  51  80 N5        30.42R
ISLIP          PTCLDY    54  49  83 N3        30.41R
SHIRLEY        CLEAR     50  48  93 CALM      30.43R
WESTHAMPTON    CLEAR     46  41  82 CALM      30.44R
MONTAUK POINT    N/A     55  51  86 CALM      30.44R
$$

NYZ052-065-067-240500-
HUDSON VALLEY

CITY           SKY/WX    TMP DP  RH WIND       PRES   REMARKS
WHITE PLAINS   CLEAR     54  49  83 CALM      30.42R
NEWBURGH       CLEAR     55  50  82 CALM      30.43R
MONTGOMERY     CLEAR     52  47  83 CALM      30.42R
POUGHKEEPSIE   CLEAR     50  47  89 E3        30.43R
ALBANY         PTCLDY    53  49  86 CALM      30.43R
$$

NJZ001-105-106-008-010-013-015-019>022-104-240500-
NEW JERSEY

CITY           SKY/WX    TMP DP  RH WIND       PRES   REMARKS
NEWARK/LIBERTY PTCLDY    61  52  72 CALM      30.41R
TETERBORO      CLEAR     61  51  70 SW5       30.41R
CALDWELL       CLEAR     54  48  80 CALM      30.43R
MORRISTOWN     CLEAR     50  46  87 CALM      30.42R
SOMERVILLE     CLEAR     50  47  89 CALM      30.40R
LINDEN         FAIR      62  53  70 CALM      30.43S
SUSSEX         CLEAR     51  48  89 CALM      30.42R
ANDOVER          N/A     49  48  97 CALM      30.41S
TRENTON        CLEAR     54  48  80 CALM      30.40S
MILLVILLE      PTCLDY    51  49  92 CALM      30.39R
ATLANTIC CITY  PTCLDY    49  47  93 CALM      30.39R
WRIGHTSTOWN    CLEAR     50  48  93 CALM      30.39R
TOMS RIVER     CLEAR     45  39  81 CALM      30.42R
BELMAR         CLEAR     54  45  71 CALM      30.41R
$$

PAZ047>061-062-071-240500-
EASTERN PENNSYLVANIA

CITY           SKY/WX    TMP DP  RH WIND       PRES   REMARKS
PHILADELPHIA   PTCLDY    58  51  78 SE3       30.41R
ALLENTOWN      CLEAR     52  47  83 CALM      30.41R
SCRANTON       CLEAR     54  48  80 E6        30.42R
$$

CTZ002-004>006-009-010-012-RIZ004-006-007-MAZ004-011-015-240500-
SOUTHERN NEW ENGLAND
 IN CT

CITY           SKY/WX    TMP DP  RH WIND       PRES   REMARKS
BRADLEY INTL   MOCLDY    55  50  83 CALM      30.42S
HARTFORD       CLEAR     54  51  90 VRB5      30.43R
DANBURY        CLEAR     49  47  93 CALM      30.45R
WTRBRY/OXFORD  CLEAR     52  45  76 E3        30.45R
BRIDGEPORT     CLEAR     58  51  78 N3        30.42R
MERIDEN        CLEAR     50  48  93 CALM      30.43S
NEW HAVEN      CLEAR     56  51  84 N5        30.43R
CHESTER        FAIR      54  50  87 CALM      30.44R
GROTON         CLEAR     50  49  96 CALM      30.43R
WILLIMANTIC    PTCLDY    51  49  92 CALM      30.44S

 IN RI

CITY           SKY/WX    TMP DP  RH WIND       PRES   REMARKS
PROVIDENCE     CLEAR     53  48  83 CALM      30.43S
BLOCK ISLAND   PTCLDY    57  48  72 SW3       30.43R
WESTERLY       CLEAR     50  48  93 N3        30.43S

 IN MA

CITY           SKY/WX    TMP DP  RH WIND       PRES   REMARKS
BOSTON         CLEAR     62  48  60 NW8       30.43R
WORCESTER      CLEAR     55  48  77 NW6       30.45R
WESTFIELD      CLOUDY    56  51  84 CALM      30.43R
PROVINCETOWN   CLEAR     59  52  77 W8        30.43R
NANTUCKET      PTCLDY    53  47  79 W3        30.43R
$$

ANZ330-335-338-340-345-350-353-355-240500-
COASTAL MARINE OBSERVATIONS


STATION/POSITION TIME  SKY/WX   TEMP    WIND        PRES    VSBY  WAVE
                                AIR SEA DIR/SP/G                  HT/PER
                 (UTC)          (F)     (DEG/KT/KT) (MB)    (MI)  (FT/S)
NY HARB ENTRANCE 0400            65 69   CALM  /  2 1030.1          2/ 8
4S FIRE IS       0400               69                N/A           2/ 9
20S FIRE ISLAND  0400            65 68   70/  4/  6 1030.0          2/ 8
23SW MTP         0400                                 N/A           2/ 9
HUDSON CANYON    0400            64 70   50/ 12/ 14 1029.0          2/ 8
EXECUTION ROCKS  0400            63 69  170/  4/  6   N/A
WESTERN LI SOUND 0400            64      CALM  /  2   N/A           0
CENTRAL LI SOUND 0300            65 69   40/  4/  6   N/A           0
EASTERN LI SOUND 0300            62 67   20/  4/  6   N/A
ROBBINS REEF     0400            62     260/  3/  4 1028.6
$$


>>>>>>>>>>>>>>>>>>>>>>>>>>>> KEY <<<<<<<<<<<<<<<<<<<<<<<<<<<
>                                                          <
>     SKY/WX - SKY CONDITION/PRESENT WEATHER               <
>     TMP    - TEMPERATURE IN FAHRENHEIT                   <
>     DP     - DEWPOINT IN FAHRENHEIT                      <
>     RH     - RELATIVE HUMIDITY IN PERCENT                <
>     WIND   - DIRECTION AND SPEED IN MPH                  <
>     PRES   - MEAN SEA LEVEL PRESSURE IN INCHES OF HG     <
>     WCI    - WIND CHILL INDEX                            <
>     VSB    - VISIBILITY IN MILES                         <
>     HX     - HEAT INDEX                                  <
>     TC     - TEMPERATURE IN CELSIUS                      <
>     VRB    - VARIABLE WIND DIRECTION                     <
>                                                          <
>>>>>>>>>>>>>>>>>>>>>>>>>>>> KEY <<<<<<<<<<<<<<<<<<<<<<<<<<<





USA.gov is the U.S. government's official web portal to all federal, state and local government web resources and services.